Location: *
(34.6780°N, 135.8310°E)
Time: 00:47:55
(UTC+00:00)

USA 32 - Pass Details

Date: 18 October 2019
Orbit: 778 x 782 km, 85.0° (Epoch: 28 October)

Event Time Altitude Azimuth Distance (km) Brightness Sun altitude
Rises 19:22:57 0° 194° (SSW) 3,244 7.1 -21.7°
Reaches altitude 10° 19:25:20 10° 199° (SSW) 2,321 6.3 -21.2°
Maximum altitude 19:30:25 54° 276° (W) 946 4.1 -20.2°
Drops below altitude 10° 19:35:32 10° 353° (N) 2,336 6.4 -19.1°
Sets 19:37:58 0° 358° (N) 3,268 7.3 -18.6°
